Location: Moscow Pond
(43.6842°N, 73.2366°W)
Time: 02:43:30
(UTC+00:00)

Cosmos 1378 Rocket - Pass Details

Date: 08 November 2025
Orbit: 595 x 619 km, 82.5° (Epoch: 04 December)

Event Time Altitude Azimuth Distance (km) Brightness Sun altitude
Rises 11:02:21 0° 185° (S) 2,831 7.1 -7.0°
Reaches altitude 10° 11:04:33 10° 184° (S) 1,930 6.3 -6.6°
Maximum altitude 11:08:48 84° 98° (E) 606 3.6 -5.9°
Drops below altitude 10° 11:13:06 10° 10° (N) 1,940 6.0 -5.1°
Sets 11:15:19 0° 10° (N) 2,847 6.9 -4.7°
